,,,PA_Meas_PMT16A,,PR_Meas_QMR101_102,,RH_Meas_QMH101,,SR_Meas_QMS101,,TA_Meas_QMH101,,GenWind,,GenWind,
date,time,status,PA,status,PR,status,RH,status,SR,status,TA,status,DirAvg,status,SpdAvg,
2009-09-01, 00:00:04,VALID,1001.49,VALID,0,VALID,89.1826,VALID,0,VALID,22.9811,VALID,338,VALID,0,
2009-09-01, 00:01:04,VALID,1001.5,VALID,0,VALID,89.0606,VALID,0,VALID,22.9225,VALID,338,VALID,0.445703,
2009-09-01, 00:02:04,VALID,1001.5,VALID,0,VALID,89.2437,VALID,0,VALID,22.8623,VALID,338,VALID,0.299609,
2009-09-01, 00:03:04,VALID,1001.46,VALID,0,VALID,89.4573,VALID,0,VALID,22.825,VALID,338,VALID,0.219531,
2009-09-01, 00:04:04,VALID,1001.49,VALID,0,VALID,89.6786,VALID,0,VALID,22.8055,VALID,338,VALID,0.398438,
2009-09-01, 00:05:04,VALID,1001.49,VALID,0,VALID,89.6404,VALID,0,VALID,22.7469,VALID,338,VALID,0.385156,
2009-09-01, 00:06:04,VALID,1001.51,VALID,0,VALID,89.8846,VALID,0,VALID,22.7079,VALID,338,VALID,0,
2009-09-01, 00:07:04,VALID,1001.48,VALID,0,VALID,90.3271,VALID,0,VALID,22.7079,VALID,338,VALID,0,
2009-09-01, 00:08:04,VALID,1001.48,VALID,0,VALID,90.4186,VALID,0,VALID,22.7079,VALID,338,VALID,0.571484,
2009-09-01, 00:09:04,VALID,1001.47,VALID,0,VALID,90.6628,VALID,0,VALID,22.7469,VALID,338,VALID,0.434375,
2009-09-01, 00:10:04,VALID,1001.44,VALID,0,VALID,90.5254,VALID,0,VALID,22.7469,VALID,338,VALID,0.3,
2009-09-01, 00:11:04,VALID,1001.46,VALID,0,VALID,89.4726,VALID,0,VALID,22.6884,VALID,338,VALID,0.413281,
2009-09-01, 00:12:04,VALID,1001.44,VALID,0,VALID,90.2889,VALID,0,VALID,22.6494,VALID,338,VALID,0.199219,
2009-09-01, 00:13:04,VALID,1001.41,VALID,0,VALID,90.7772,VALID,0,VALID,22.6477,VALID,338,VALID,0.377344,
2009-09-01, 00:14:04,VALID,1001.42,VALID,0,VALID,90.6857,VALID,0,VALID,22.6477,VALID,350,VALID,0.539844,
2009-09-01, 00:15:04,VALID,1001.38,VALID,0,VALID,90.2355,VALID,0,VALID,22.5892,VALID,69,VALID,0.734766,
2009-09-01, 00:16:04,VALID,1001.34,VALID,0,VALID,90.968,VALID,0,VALID,22.5892,VALID,69,VALID,1.15664,
2009-09-01, 00:17:04,VALID,1001.35,VALID,0,VALID,90.7391,VALID,0,VALID,22.6282,VALID,60,VALID,0.796875,
2009-09-01, 00:18:04,VALID,1001.34,VALID,0,VALID,90.1974,VALID,0,VALID,22.6282,VALID,60,VALID,0.125781,
2009-09-01, 00:19:04,VALID,1001.33,VALID,0,VALID,90.205,VALID,0,VALID,22.6282,VALID,60,VALID,0.2375,
2009-09-01, 00:20:04,VALID,1001.32,VALID,0,VALID,90.2279,VALID,0,VALID,22.6087,VALID,60,VALID,0.31875,
2009-09-01, 00:21:04,VALID,1001.34,VALID,0,VALID,90.1668,VALID,0,VALID,22.5892,VALID,60,VALID,0.324609,
2009-09-01, 00:22:04,VALID,1001.32,VALID,0,VALID,90.3957,VALID,0,VALID,22.5679,VALID,60,VALID,0,
2009-09-01, 00:23:04,VALID,1001.27,VALID,0,VALID,90.5636,VALID,0.112286,VALID,22.5679,VALID,60,VALID,0.00234375,
2009-09-01, 00:24:04,VALID,1001.26,VALID,0,VALID,90.7543,VALID,0,VALID,22.6087,VALID,60,VALID,0.239453,
2009-09-01, 00:25:04,VALID,1001.27,VALID,0,VALID,90.762,VALID,0,VALID,22.5874,VALID,60,VALID,0.310937,
2009-09-01, 00:26:04,VALID,1001.25,VALID,0,VALID,90.7085,VALID,0,VALID,22.6282,VALID,60,VALID,0.450391,
2009-09-01, 00:27:04,VALID,1001.22,VALID,0,VALID,90.8001,VALID,0,VALID,22.6477,VALID,60,VALID,0.652344,
2009-09-01, 00:28:04,VALID,1001.19,VALID,0,VALID,90.823,VALID,0,VALID,22.6299,VALID,42,VALID,1.10273,
2009-09-01, 00:29:04,VALID,1001.21,VALID,0,VALID,90.7162,VALID,0,VALID,22.6689,VALID,35,VALID,1.02305,
2009-09-01, 00:30:04,VALID,1001.23,VALID,0,VALID,90.4873,VALID,0,VALID,22.6087,VALID,35,VALID,1.07031,
2009-09-01, 00:31:04,VALID,1001.22,VALID,0,VALID,90.556,VALID,0,VALID,22.5696,VALID,35,VALID,1.02148,
2009-09-01, 00:32:04,VALID,1001.21,VALID,0,VALID,90.6017,VALID,0,VALID,22.5519,VALID,35,VALID,0.976563,
2009-09-01, 00:33:04,VALID,1001.22,VALID,0,VALID,90.7085,VALID,0,VALID,22.5323,VALID,36,VALID,0.973828,
2009-09-01, 00:34:04,VALID,1001.2,VALID,0,VALID,90.7467,VALID,0,VALID,22.4916,VALID,40,VALID,0.763281,
2009-09-01, 00:35:04,VALID,1001.23,VALID,0,VALID,90.7162,VALID,0,VALID,22.4331,VALID,41,VALID,0.616406,
2009-09-01, 00:36:04,VALID,1001.19,VALID,0,VALID,91.2884,VALID,0,VALID,22.4331,VALID,41,VALID,0.798437,
2009-09-01, 00:37:04,VALID,1001.23,VALID,0,VALID,91.7462,VALID,0,VALID,22.4738,VALID,42,VALID,0.651563,
2009-09-01, 00:38:04,VALID,1001.23,VALID,0,VALID,91.5783,VALID,0,VALID,22.4933,VALID,62,VALID,0.5375,
2009-09-01, 00:39:04,VALID,1001.2,VALID,0,VALID,91.4334,VALID,0,VALID,22.4933,VALID,68,VALID,0.763672,
2009-09-01, 00:40:04,VALID,1001.16,VALID,0,VALID,91.4715,VALID,0,VALID,22.4738,VALID,54,VALID,0.811719,
2009-09-01, 00:41:04,VALID,1001.16,VALID,0,VALID,91.3494,VALID,0,VALID,22.4543,VALID,68,VALID,0.685547,
2009-09-01, 00:42:04,VALID,1001.15,VALID,0,VALID,91.2426,VALID,0,VALID,22.4153,VALID,85,VALID,0.689453,
2009-09-01, 00:43:04,VALID,1001.12,VALID,0,VALID,91.3037,VALID,0,VALID,22.3339,VALID,95,VALID,1.12852,
2009-09-01, 00:44:04,VALID,1001.15,VALID,0,VALID,91.3494,VALID,0,VALID,22.3161,VALID,111,VALID,1.02773,
2009-09-01, 00:45:04,VALID,1001.12,VALID,0,VALID,91.6775,VALID,0,VALID,22.3356,VALID,113,VALID,1.13828,
2009-09-01, 00:46:04,VALID,1001.13,VALID,0,VALID,91.7462,VALID,0,VALID,22.3551,VALID,100,VALID,1.14141,
2009-09-01, 00:47:04,VALID,1001.12,VALID,0,VALID,91.6165,VALID,0,VALID,22.3729,VALID,98,VALID,1.14297,
2009-09-01, 00:48:04,VALID,1001.1,VALID,0,VALID,91.441,VALID,0,VALID,22.4136,VALID,97,VALID,0.777344,
2009-09-01, 00:49:04,VALID,1001.08,VALID,0,VALID,91.4715,VALID,0.112286,VALID,22.4331,VALID,97,VALID,0.64375,
2009-09-01, 00:50:04,VALID,1001.1,VALID,0,VALID,91.3037,VALID,0,VALID,22.4721,VALID,97,VALID,0.656641,
2009-09-01, 00:51:04,VALID,1001.06,VALID,0,VALID,91.1358,VALID,0,VALID,22.4509,VALID,111,VALID,0.609375,
2009-09-01, 00:52:04,VALID,1001.01,VALID,0,VALID,91.38,VALID,0,VALID,22.4916,VALID,95,VALID,0.750781,
2009-09-01, 00:53:04,VALID,1001.02,VALID,0,VALID,91.1511,VALID,0,VALID,22.4704,VALID,110,VALID,0.935938,
2009-09-01, 00:54:04,VALID,1001.03,VALID,0,VALID,91.1206,VALID,0.112286,VALID,22.5484,VALID,135,VALID,1.19141,
2009-09-01, 00:55:04,VALID,1000.97,VALID,0,VALID,90.6017,VALID,0,VALID,22.6069,VALID,117,VALID,1.27383,
2009-09-01, 00:56:04,VALID,1000.95,VALID,0,VALID,89.8235,VALID,0.112286,VALID,22.6655,VALID,108,VALID,1.8207,
2009-09-01, 00:57:04,VALID,1000.94,VALID,0,VALID,89.1597,VALID,0.112286,VALID,22.8037,VALID,116,VALID,1.79062,
2009-09-01, 00:58:04,VALID,1000.92,VALID,0,VALID,88.4502,VALID,0,VALID,22.9403,VALID,130,VALID,1.29688,
2009-09-01, 00:59:04,VALID,1000.9,VALID,0,VALID,87.8398,VALID,0,VALID,23.0769,VALID,133,VALID,1.20391,
2009-09-01, 01:00:04,VALID,1000.88,VALID,0,VALID,87.382,VALID,0,VALID,23.1549,VALID,128,VALID,0.928906,
2009-09-01, 01:01:04,VALID,1000.89,VALID,0,VALID,87.054,VALID,0,VALID,23.1939,VALID,143,VALID,1.03437,
2009-09-01, 01:02:04,VALID,1000.89,VALID,0,VALID,86.7183,VALID,0,VALID,23.2329,VALID,149,VALID,1.25625,
2009-09-01, 01:03:04,VALID,1000.86,VALID,0,VALID,86.3902,VALID,0,VALID,23.2932,VALID,149,VALID,0.995703,
2009-09-01, 01:04:04,VALID,1000.9,VALID,0,VALID,86.0697,VALID,0,VALID,23.3323,VALID,142,VALID,1.20117,
2009-09-01, 01:05:04,VALID,1000.9,VALID,0,VALID,85.7188,VALID,0,VALID,23.35,VALID,147,VALID,1.34336,
2009-09-01, 01:06:04,VALID,1000.88,VALID,0,VALID,85.5815,VALID,0,VALID,23.3695,VALID,144,VALID,1.26016,
2009-09-01, 01:07:04,VALID,1000.92,VALID,0,VALID,85.3755,VALID,0,VALID,23.389,VALID,144,VALID,1.12266,
2009-09-01, 01:08:04,VALID,1000.91,VALID,0,VALID,85.3373,VALID,0,VALID,23.4298,VALID,157,VALID,1.24219,
2009-09-01, 01:09:04,VALID,1000.88,VALID,0,VALID,85.2229,VALID,0,VALID,23.4493,VALID,150,VALID,1.20117,
2009-09-01, 01:10:04,VALID,1000.84,VALID,0,VALID,84.9787,VALID,0,VALID,23.4671,VALID,139,VALID,0.58125,
2009-09-01, 01:11:04,VALID,1000.87,VALID,0,VALID,84.7498,VALID,0,VALID,23.5061,VALID,129,VALID,1.27695,
2009-09-01, 01:12:04,VALID,1000.86,VALID,0,VALID,84.3912,VALID,0,VALID,23.5256,VALID,133,VALID,1.22148,
2009-09-01, 01:13:04,VALID,1000.88,VALID,0,VALID,84.2081,VALID,0,VALID,23.5469,VALID,137,VALID,1.48984,
2009-09-01, 01:14:04,VALID,1000.84,VALID,0,VALID,84.0632,VALID,0,VALID,23.5451,VALID,129,VALID,1.33398,
2009-09-01, 01:15:04,VALID,1000.85,VALID,0,VALID,84.1013,VALID,0,VALID,23.5451,VALID,126,VALID,1.40234,
2009-09-01, 01:16:04,VALID,1000.85,VALID,0,VALID,84.0555,VALID,0,VALID,23.5646,VALID,136,VALID,1.57383,
2009-09-01, 01:17:04,VALID,1000.76,VALID,0,VALID,84.025,VALID,0,VALID,23.5664,VALID,124,VALID,1.10547,
2009-09-01, 01:18:04,VALID,1000.74,VALID,0,VALID,84.086,VALID,0,VALID,23.5451,VALID,119,VALID,0.827734,
2009-09-01, 01:19:04,VALID,1000.75,VALID,0,VALID,84.0021,VALID,0,VALID,23.5451,VALID,129,VALID,1.25039,
2009-09-01, 01:20:04,VALID,1000.74,VALID,0,VALID,83.9182,VALID,0,VALID,23.5451,VALID,132,VALID,0.985547,
2009-09-01, 01:21:04,VALID,1000.71,VALID,0,VALID,83.8572,VALID,0,VALID,23.5451,VALID,135,VALID,0.575781,
2009-09-01, 01:22:04,VALID,1000.73,VALID,0,VALID,83.964,VALID,0,VALID,23.5664,VALID,147,VALID,1.06562,
2009-09-01, 01:23:04,VALID,1000.76,VALID,0,VALID,83.8724,VALID,0,VALID,23.5646,VALID,158,VALID,1.41875,
2009-09-01, 01:24:04,VALID,1000.76,VALID,0,VALID,83.7198,VALID,0,VALID,23.5841,VALID,155,VALID,1.40313,
2009-09-01, 01:25:04,VALID,1000.74,VALID,0,VALID,83.5138,VALID,0,VALID,23.6232,VALID,159,VALID,0.782422,
2009-09-01, 01:26:04,VALID,1000.74,VALID,0,VALID,83.2697,VALID,0,VALID,23.6835,VALID,164,VALID,1.1625,
2009-09-01, 01:27:04,VALID,1000.75,VALID,0,VALID,83.1781,VALID,0,VALID,23.6817,VALID,169,VALID,1.08945,
2009-09-01, 01:28:04,VALID,1000.75,VALID,0,VALID,83.1171,VALID,0,VALID,23.7225,VALID,169,VALID,1.38945,
2009-09-01, 01:29:04,VALID,1000.74,VALID,0,VALID,82.85,VALID,0,VALID,23.7597,VALID,158,VALID,0.762109,
2009-09-01, 01:30:04,VALID,1000.74,VALID,0,VALID,82.7203,VALID,0,VALID,23.7811,VALID,157,VALID,1.08555,
2009-09-01, 01:31:04,VALID,1000.74,VALID,0,VALID,82.7051,VALID,0,VALID,23.7793,VALID,175,VALID,1.6,
2009-09-01, 01:32:04,VALID,1000.74,VALID,0,VALID,82.5067,VALID,0,VALID,23.8183,VALID,165,VALID,1.35859,
2009-09-01, 01:33:04,VALID,1000.74,VALID,0,VALID,82.4304,VALID,0,VALID,23.8378,VALID,161,VALID,1.23242,
2009-09-01, 01:34:04,VALID,1000.73,VALID,0,VALID,82.3083,VALID,0,VALID,23.8982,VALID,151,VALID,1.05781,
2009-09-01, 01:35:04,VALID,1000.73,VALID,0,VALID,82.2397,VALID,0,VALID,23.8786,VALID,148,VALID,0.705859,
2009-09-01, 01:36:04,VALID,1000.75,VALID,0,VALID,82.3083,VALID,0,VALID,23.8378,VALID,147,VALID,0.832422,
2009-09-01, 01:37:04,VALID,1000.76,VALID,0,VALID,82.4075,VALID,0,VALID,23.8396,VALID,162,VALID,0.996484,
2009-09-01, 01:38:04,VALID,1000.74,VALID,0,VALID,82.4228,VALID,0,VALID,23.7988,VALID,161,VALID,0.882031,
2009-09-01, 01:39:04,VALID,1000.71,VALID,0,VALID,82.5677,VALID,0,VALID,23.8201,VALID,148,VALID,1.06523,
2009-09-01, 01:40:04,VALID,1000.72,VALID,0,VALID,82.7661,VALID,0,VALID,23.7793,VALID,160,VALID,1.40508,
2009-09-01, 01:41:04,VALID,1000.72,VALID,0,VALID,82.728,VALID,0,VALID,23.7988,VALID,160,VALID,1.69062,
2009-09-01, 01:42:04,VALID,1000.73,VALID,0,VALID,82.6746,VALID,0,VALID,23.8183,VALID,154,VALID,1.78281,
2009-09-01, 01:43:04,VALID,1000.68,VALID,0,VALID,82.5067,VALID,0,VALID,23.8573,VALID,133,VALID,1.30625,
2009-09-01, 01:44:04,VALID,1000.66,VALID,0,VALID,82.4609,VALID,0,VALID,23.8573,VALID,118,VALID,0.624609,
2009-09-01, 01:45:04,VALID,1000.66,VALID,0,VALID,82.5449,VALID,0,VALID,23.8396,VALID,145,VALID,0.844531,
2009-09-01, 01:46:04,VALID,1000.72,VALID,0,VALID,82.6669,VALID,0,VALID,23.8183,VALID,147,VALID,1.2168,
2009-09-01, 01:47:04,VALID,1000.68,VALID,0,VALID,82.6288,VALID,0,VALID,23.8183,VALID,156,VALID,1.71367,
2009-09-01, 01:48:04,VALID,1000.66,VALID,0,VALID,82.4457,VALID,0,VALID,23.8573,VALID,155,VALID,1.31211,
2009-09-01, 01:49:04,VALID,1000.64,VALID,0,VALID,82.2168,VALID,0,VALID,23.8963,VALID,136,VALID,0.883594,
2009-09-01, 01:50:04,VALID,1000.65,VALID,0,VALID,82.3007,VALID,0,VALID,23.8963,VALID,152,VALID,1.09766,
2009-09-01, 01:51:04,VALID,1000.64,VALID,0,VALID,82.2931,VALID,0,VALID,23.8982,VALID,157,VALID,1.73828,
2009-09-01, 01:52:04,VALID,1000.65,VALID,0,VALID,82.2702,VALID,0,VALID,23.8963,VALID,174,VALID,1.70781,
2009-09-01, 01:53:04,VALID,1000.66,VALID,0,VALID,82.2397,VALID,0,VALID,23.8963,VALID,163,VALID,1.50117,
2009-09-01, 01:54:04,VALID,1000.66,VALID,0,VALID,82.1557,VALID,0,VALID,23.9177,VALID,152,VALID,1.21016,
2009-09-01, 01:55:04,VALID,1000.62,VALID,0,VALID,82.1634,VALID,0,VALID,23.9159,VALID,150,VALID,0.856641,
2009-09-01, 01:56:04,VALID,1000.6,VALID,0,VALID,82.1939,VALID,0,VALID,23.8982,VALID,169,VALID,1.17813,
2009-09-01, 01:57:04,VALID,1000.61,VALID,0,VALID,82.2931,VALID,0,VALID,23.8768,VALID,171,VALID,1.27852,
2009-09-01, 01:58:04,VALID,1000.58,VALID,0,VALID,82.3007,VALID,0,VALID,23.8768,VALID,153,VALID,1.38711,
2009-09-01, 01:59:04,VALID,1000.58,VALID,0,VALID,82.0413,VALID,0,VALID,23.9177,VALID,154,VALID,1.76211,
2009-09-01, 02:00:04,VALID,1000.56,VALID,0,VALID,82.0795,VALID,0,VALID,23.8982,VALID,153,VALID,1.44102,
2009-09-01, 02:01:04,VALID,1000.55,VALID,0,VALID,82.2855,VALID,0,VALID,23.8591,VALID,152,VALID,1.77188,
2009-09-01, 02:02:04,VALID,1000.58,VALID,0,VALID,82.522,VALID,0,VALID,23.8183,VALID,147,VALID,1.50352,
2009-09-01, 02:03:04,VALID,1000.57,VALID,0,VALID,82.7661,VALID,0,VALID,23.8006,VALID,143,VALID,1.80547,
2009-09-01, 02:04:04,VALID,1000.54,VALID,0,VALID,82.9645,VALID,0,VALID,23.7616,VALID,145,VALID,1.55313,
2009-09-01, 02:05:04,VALID,1000.54,VALID,0,VALID,83.14,VALID,0,VALID,23.7616,VALID,162,VALID,1.76875,
2009-09-01, 02:06:04,VALID,1000.52,VALID,0,VALID,83.2468,VALID,0,VALID,23.7207,VALID,161,VALID,1.53203,
2009-09-01, 02:07:04,VALID,1000.52,VALID,0,VALID,83.1171,VALID,0,VALID,23.742,VALID,164,VALID,1.51406,
2009-09-01, 02:08:04,VALID,1000.55,VALID,0,VALID,83.0789,VALID,0,VALID,23.7616,VALID,152,VALID,1.80313,
2009-09-01, 02:09:04,VALID,1000.54,VALID,0,VALID,82.7051,VALID,0,VALID,23.8201,VALID,135,VALID,1.78633,
2009-09-01, 02:10:04,VALID,1000.53,VALID,0,VALID,82.522,VALID,0,VALID,23.8183,VALID,139,VALID,1.51641,
2009-09-01, 02:11:04,VALID,1000.56,VALID,0,VALID,82.3541,VALID,0,VALID,23.8786,VALID,140,VALID,1.84766,
2009-09-01, 02:12:04,VALID,1000.54,VALID,0,VALID,82.3617,VALID,0,VALID,23.8786,VALID,140,VALID,1.18867,
2009-09-01, 02:13:04,VALID,1000.52,VALID,0,VALID,82.3541,VALID,0,VALID,23.8378,VALID,148,VALID,1.1,
2009-09-01, 02:14:04,VALID,1000.52,VALID,0,VALID,82.4304,VALID,0,VALID,23.8183,VALID,144,VALID,1.12578,
2009-09-01, 02:15:04,VALID,1000.51,VALID,0,VALID,82.4915,VALID,0,VALID,23.8396,VALID,142,VALID,1.13437,
2009-09-01, 02:16:04,VALID,1000.5,VALID,0,VALID,82.7051,VALID,0,VALID,23.8006,VALID,147,VALID,1.13633,
2009-09-01, 02:17:04,VALID,1000.49,VALID,0,VALID,82.8729,VALID,0,VALID,23.7616,VALID,150,VALID,0.975781,
2009-09-01, 02:18:04,VALID,1000.46,VALID,0,VALID,82.9645,VALID,0,VALID,23.6817,VALID,146,VALID,1.08086,
2009-09-01, 02:19:04,VALID,1000.48,VALID,0,VALID,83.1552,VALID,0,VALID,23.6835,VALID,152,VALID,1.08477,
2009-09-01, 02:20:04,VALID,1000.48,VALID,0,VALID,83.3078,VALID,0,VALID,23.6427,VALID,156,VALID,0.995703,
2009-09-01, 02:21:04,VALID,1000.45,VALID,0,VALID,83.2697,VALID,0,VALID,23.6445,VALID,165,VALID,1.08242,
2009-09-01, 02:22:04,VALID,1000.44,VALID,0,VALID,83.1781,VALID,0,VALID,23.6427,VALID,159,VALID,1.12188,
2009-09-01, 02:23:04,VALID,1000.43,VALID,0,VALID,83.0713,VALID,0,VALID,23.6835,VALID,155,VALID,0.832812,
2009-09-01, 02:24:04,VALID,1000.43,VALID,0,VALID,83.0179,VALID,0,VALID,23.6835,VALID,155,VALID,0.669141,
2009-09-01, 02:25:04,VALID,1000.42,VALID,0,VALID,82.8806,VALID,0,VALID,23.742,VALID,156,VALID,1.32148,
2009-09-01, 02:26:04,VALID,1000.4,VALID,0,VALID,82.4686,VALID,0,VALID,23.8201,VALID,162,VALID,1.24141,
2009-09-01, 02:27:04,VALID,1000.43,VALID,0,VALID,82.316,VALID,0,VALID,23.8396,VALID,170,VALID,0.991406,
2009-09-01, 02:28:04,VALID,1000.41,VALID,0,VALID,82.2931,VALID,0,VALID,23.8396,VALID,157,VALID,0.895703,
2009-09-01, 02:29:04,VALID,1000.42,VALID,0,VALID,82.3541,VALID,0,VALID,23.8396,VALID,170,VALID,0.979688,
2009-09-01, 02:30:04,VALID,1000.4,VALID,0,VALID,82.377,VALID,0,VALID,23.8396,VALID,172,VALID,1.00156,
2009-09-01, 02:31:04,VALID,1000.4,VALID,0,VALID,82.3846,VALID,0,VALID,23.8201,VALID,172,VALID,0.5625,
2009-09-01, 02:32:04,VALID,1000.41,VALID,0,VALID,82.4838,VALID,0,VALID,23.8201,VALID,172,VALID,0.821875,
2009-09-01, 02:33:04,VALID,1000.42,VALID,0,VALID,82.5067,VALID,0,VALID,23.7793,VALID,173,VALID,0.758203,
2009-09-01, 02:34:04,VALID,1000.39,VALID,0,VALID,82.3846,VALID,0,VALID,23.8006,VALID,172,VALID,0.649609,
2009-09-01, 02:35:04,VALID,1000.37,VALID,0,VALID,82.3236,VALID,0,VALID,23.7811,VALID,154,VALID,0.471875,
2009-09-01, 02:36:04,VALID,1000.4,VALID,0,VALID,82.5143,VALID,0,VALID,23.7207,VALID,154,VALID,0.539063,
2009-09-01, 02:37:04,VALID,1000.36,VALID,0,VALID,82.5449,VALID,0,VALID,23.6835,VALID,155,VALID,0.230859,
2009-09-01, 02:38:04,VALID,1000.4,VALID,0,VALID,82.8119,VALID,0,VALID,23.5664,VALID,182,VALID,0.415234,
2009-09-01, 02:39:04,VALID,1000.41,VALID,0,VALID,83.7732,VALID,0,VALID,23.3908,VALID,219,VALID,0.468359,
2009-09-01, 02:40:04,VALID,1000.42,VALID,0,VALID,84.5133,VALID,0,VALID,23.2152,VALID,219,VALID,0.408594,
2009-09-01, 02:41:04,VALID,1000.41,VALID,0,VALID,85.0321,VALID,0,VALID,23.0786,VALID,219,VALID,0.0894531,
2009-09-01, 02:42:04,VALID,1000.41,VALID,0,VALID,86.0697,VALID,0,VALID,22.942,VALID,219,VALID,0,
2009-09-01, 02:43:04,VALID,1000.39,VALID,0,VALID,86.4665,VALID,0,VALID,22.8818,VALID,219,VALID,0,
2009-09-01, 02:44:04,VALID,1000.37,VALID,0,VALID,86.5428,VALID,0,VALID,22.763,VALID,219,VALID,0,
2009-09-01, 02:45:04,VALID,1000.42,VALID,0,VALID,86.9853,VALID,0,VALID,22.7062,VALID,216,VALID,0.299609,
2009-09-01, 02:46:04,VALID,1000.38,VALID,0,VALID,87.5499,VALID,0,VALID,22.6477,VALID,146,VALID,0.731641,
2009-09-01, 02:47:04,VALID,1000.39,VALID,0,VALID,87.4583,VALID,0,VALID,22.6672,VALID,147,VALID,0.463281,
2009-09-01, 02:48:04,VALID,1000.37,VALID,0,VALID,87.2294,VALID,0,VALID,22.6655,VALID,141,VALID,0.545313,
2009-09-01, 02:49:04,VALID,1000.35,VALID,0,VALID,87.054,VALID,0,VALID,22.7647,VALID,164,VALID,0.748047,
2009-09-01, 02:50:04,VALID,1000.36,VALID,0,VALID,86.4817,VALID,0,VALID,22.8818,VALID,163,VALID,1.1043,
2009-09-01, 02:51:04,VALID,1000.34,VALID,0,VALID,85.7035,VALID,0,VALID,22.9793,VALID,153,VALID,1.12461,
2009-09-01, 02:52:04,VALID,1000.34,VALID,0,VALID,85.0092,VALID,0,VALID,23.1354,VALID,147,VALID,1.09141,
2009-09-01, 02:53:04,VALID,1000.33,VALID,0,VALID,84.2615,VALID,0,VALID,23.2329,VALID,147,VALID,0.691406,
2009-09-01, 02:54:04,VALID,1000.36,VALID,0,VALID,84.2234,VALID,0.112286,VALID,23.2719,VALID,158,VALID,0.842578,
2009-09-01, 02:55:04,VALID,1000.36,VALID,0,VALID,84.231,VALID,0,VALID,23.2702,VALID,165,VALID,0.903125,
2009-09-01, 02:56:04,VALID,1000.39,VALID,0,VALID,84.025,VALID,0,VALID,23.3305,VALID,158,VALID,1.08789,
2009-09-01, 02:57:04,VALID,1000.39,VALID,0,VALID,83.8114,VALID,0,VALID,23.3305,VALID,160,VALID,0.799609,
2009-09-01, 02:58:04,VALID,1000.38,VALID,0,VALID,83.7885,VALID,0,VALID,23.3518,VALID,168,VALID,0.885938,
2009-09-01, 02:59:04,VALID,1000.38,VALID,0,VALID,83.7198,VALID,0,VALID,23.3713,VALID,173,VALID,0.417188,
2009-09-01, 03:00:04,VALID,1000.37,VALID,0,VALID,83.5138,VALID,0,VALID,23.4103,VALID,173,VALID,0.449219,
2009-09-01, 03:01:04,VALID,1000.37,VALID,0,VALID,83.3994,VALID,0,VALID,23.4103,VALID,173,VALID,0.362891,
2009-09-01, 03:02:04,VALID,1000.38,VALID,0,VALID,83.4146,VALID,0,VALID,23.4103,VALID,173,VALID,0.344531,
2009-09-01, 03:03:04,VALID,1000.35,VALID,0,VALID,83.3078,VALID,0,VALID,23.4298,VALID,168,VALID,0.385938,
2009-09-01, 03:04:04,VALID,1000.37,VALID,0,VALID,83.1476,VALID,0,VALID,23.3908,VALID,165,VALID,0.526953,
2009-09-01, 03:05:04,VALID,1000.38,VALID,0,VALID,83.0103,VALID,0,VALID,23.3908,VALID,157,VALID,0.444141,
2009-09-01, 03:06:04,VALID,1000.36,VALID,0,VALID,82.995,VALID,0,VALID,23.3713,VALID,157,VALID,0.394141,
2009-09-01, 03:07:04,VALID,1000.35,VALID,0,VALID,82.9187,VALID,0,VALID,23.35,VALID,157,VALID,0.244531,
2009-09-01, 03:08:04,VALID,1000.36,VALID,0,VALID,82.8729,VALID,0,VALID,23.3518,VALID,157,VALID,0,
2009-09-01, 03:09:04,VALID,1000.36,VALID,0,VALID,83.0637,VALID,0,VALID,23.2719,VALID,157,VALID,0,
2009-09-01, 03:10:04,VALID,1000.35,VALID,0,VALID,83.4375,VALID,0,VALID,23.1957,VALID,157,VALID,0,
2009-09-01, 03:11:04,VALID,1000.34,VALID,0,VALID,83.8648,VALID,0,VALID,23.1371,VALID,157,VALID,0,
2009-09-01, 03:12:04,VALID,1000.34,VALID,0,VALID,84.3912,VALID,0,VALID,22.9988,VALID,158,VALID,0.0402344,
2009-09-01, 03:13:04,VALID,1000.3,VALID,0,VALID,84.9406,VALID,0,VALID,22.9208,VALID,198,VALID,0.350781,
2009-09-01, 03:14:04,VALID,1000.32,VALID,0,VALID,85.1618,VALID,0,VALID,22.903,VALID,198,VALID,0.140625,
2009-09-01, 03:15:04,VALID,1000.28,VALID,0,VALID,85.467,VALID,0,VALID,22.825,VALID,198,VALID,0.105469,
2009-09-01, 03:16:04,VALID,1000.29,VALID,0,VALID,85.8485,VALID,0,VALID,22.7664,VALID,198,VALID,0,
2009-09-01, 03:17:04,VALID,1000.27,VALID,0,VALID,86.0087,VALID,0,VALID,22.7274,VALID,198,VALID,0,
2009-09-01, 03:18:04,VALID,1000.23,VALID,0,VALID,86.1308,VALID,0,VALID,22.7079,VALID,198,VALID,0,
2009-09-01, 03:19:04,VALID,1000.24,VALID,0,VALID,86.0316,VALID,0,VALID,22.6689,VALID,198,VALID,0,
2009-09-01, 03:20:04,VALID,1000.25,VALID,0,VALID,86.5504,VALID,0,VALID,22.5696,VALID,143,VALID,0.724609,
2009-09-01, 03:21:04,VALID,1000.22,VALID,0,VALID,86.6572,VALID,0,VALID,22.5909,VALID,132,VALID,0.890625,
2009-09-01, 03:22:04,VALID,1000.21,VALID,0,VALID,85.8485,VALID,0,VALID,22.6299,VALID,110,VALID,0.921484,
2009-09-01, 03:23:04,VALID,1000.16,VALID,0,VALID,85.7798,VALID,0,VALID,22.6494,VALID,110,VALID,0.717188,
2009-09-01, 03:24:04,VALID,1000.2,VALID,0,VALID,86.0926,VALID,0,VALID,22.6494,VALID,110,VALID,0.582031,
2009-09-01, 03:25:04,VALID,1000.22,VALID,0,VALID,86.3444,VALID,0,VALID,22.6494,VALID,110,VALID,0.642187,
2009-09-01, 03:26:04,VALID,1000.18,VALID,0,VALID,85.9706,VALID,0,VALID,22.6494,VALID,109,VALID,0.428516,
2009-09-01, 03:27:04,VALID,1000.21,VALID,0,VALID,85.8637,VALID,0,VALID,22.5714,VALID,109,VALID,0.0199219,
2009-09-01, 03:28:04,VALID,1000.2,VALID,0,VALID,86.2681,VALID,0,VALID,22.5323,VALID,109,VALID,0.153906,
2009-09-01, 03:29:04,VALID,1000.21,VALID,0,VALID,86.4817,VALID,0,VALID,22.4933,VALID,109,VALID,0,
2009-09-01, 03:30:04,VALID,1000.2,VALID,0,VALID,86.7564,VALID,0,VALID,22.4526,VALID,109,VALID,0.111719,
2009-09-01, 03:31:04,VALID,1000.22,VALID,0,VALID,86.8403,VALID,0,VALID,22.4348,VALID,109,VALID,0.475391,
2009-09-01, 03:32:04,VALID,1000.22,VALID,0,VALID,87.2981,VALID,0,VALID,22.4136,VALID,109,VALID,0.997656,
2009-09-01, 03:33:04,VALID,1000.21,VALID,0,VALID,87.2905,VALID,0,VALID,22.4721,VALID,110,VALID,0.954687,
2009-09-01, 03:34:04,VALID,1000.22,VALID,0,VALID,86.6725,VALID,0,VALID,22.5714,VALID,119,VALID,0.703516,
2009-09-01, 03:35:04,VALID,1000.19,VALID,0,VALID,86.2605,VALID,0,VALID,22.6104,VALID,119,VALID,0.371484,
2009-09-01, 03:36:04,VALID,1000.21,VALID,0,VALID,86.3826,VALID,0,VALID,22.5892,VALID,119,VALID,0.377344,
2009-09-01, 03:37:04,VALID,1000.18,VALID,0,VALID,86.3826,VALID,0,VALID,22.6104,VALID,119,VALID,0.140234,
2009-09-01, 03:38:04,VALID,1000.19,VALID,0,VALID,86.3673,VALID,0,VALID,22.5519,VALID,119,VALID,0.235156,
2009-09-01, 03:39:04,VALID,1000.2,VALID,0,VALID,86.4512,VALID,0,VALID,22.5519,VALID,119,VALID,0.230078,
2009-09-01, 03:40:04,VALID,1000.2,VALID,0,VALID,86.4054,VALID,0,VALID,22.5111,VALID,119,VALID,0.117578,
2009-09-01, 03:41:04,VALID,1000.2,VALID,0,VALID,86.2452,VALID,0,VALID,22.4933,VALID,115,VALID,0.344922,
2009-09-01, 03:42:04,VALID,1000.19,VALID,0,VALID,86.3368,VALID,0,VALID,22.3958,VALID,50,VALID,0.361719,
2009-09-01, 03:43:04,VALID,1000.2,VALID,0,VALID,86.8937,VALID,0,VALID,22.2983,VALID,50,VALID,0.230078,
2009-09-01, 03:44:04,VALID,1000.17,VALID,0,VALID,87.6033,VALID,0,VALID,22.2202,VALID,38,VALID,0.6625,
2009-09-01, 03:45:04,VALID,1000.2,VALID,0,VALID,88.2747,VALID,0,VALID,22.1812,VALID,22,VALID,0.873047,
2009-09-01, 03:46:04,VALID,1000.21,VALID,0,VALID,88.7477,VALID,0,VALID,22.1227,VALID,13,VALID,1.16914,